CZ-6A DEB

Satellite information

Favourite Embed

Satellite Type and Status

DEBRISIN ORBIT

Key statistics

Satellite CZ-6A DEB at a glance.

Uptime

1075

Days in orbit

Revolutions

≈ 14.2

Per day

Orbit

SSO

Sun Synchronous Orbit

Inclination

98.8

Latest

Satellite identification and parameters

Extended collection of information and parameters for CZ-6A DEB.

Object identification

Identified? True

Debris? True

Object name: CZ-6A DEB

International designator: 2022-151ADW

Object number (NORAD): 56598

Object ID (CCSDS): 56598

Country: PEOPLES REPUBLIC OF CHINA (PRC)

Current information (Y/N): Y

RCS size: SMALL

Orbital parameters

Period: 101.251 minutes

Inclination: 98.786 deg

SMA: 7196.04 km

Apoapsis: 849.526 km

Periapsis: 786.284 km

RAAN: 307.5639 deg

Eccentricy: 0.00439417

Argument of periapsis: 316.5186 deg

Mean anomaly: 43.253 deg

Mean motion: 14.22205676 rev/day

Mean motion (dot): 0.00002729 rev/day2

B* drag term: 0.0012380667 1/REarth

Two-line elements (TLE)

Creation date: Oct. 21, 2025, 3:26 a.m.

Reference frame: TEME

Reference center: EARTH

Epoch: Oct. 20, 2025, 6:13 p.m. UTC

TLE line 0: 0 CZ-6A DEB

TLE line 1: 1 56598U 22151ADW 25293.75917456 .00002729 00000-0 12381-2 0 9996

TLE line 2: 2 56598 98.7860 307.5639 0043942 316.5186 43.2530 14.22205676129417

Live tracking on map

Real-time ground track for satellite CZ-6A DEB.

In-orbit conjunctions

A list of the most updated potential collisions computed for object CZ-6A DEB.

Target Orbit TCA Probability of collision Miss distance Type
NOAA 16 DEB SSO 2025-09-07 07:53:48 0.000390272 55.0 (m) DEBRIS
THOR BURNER 2 R/B SSO 2025-02-06 04:02:42 0.000246549 281.0 (m) ROCKET BODY
DELTA 1 DEB SSO 2024-06-13 10:26:18 0.0002788645 117.0 (m) DEBRIS

Associated space launch

Chinese satellite reported for atmospheric/ocean/environmental/spatial parameter research purposes, details TBD.

CZ-6A DEB was lifted into orbit during the mission ‘Long March 6A | Yunhai 3’, on board a Long March 6A space rocket.

The launch took place on Nov. 11, 2022, 10:52 p.m. from Launch Complex 9A.

For more information about the launch, click the button.

Launch to space Long March 6A | Yunhai 3
Long March 6A | Yunhai 3

Agency: N/A

Status: Launch Successful

Launch date: Nov. 11, 2022, 10:52 p.m. UTC

Rocket: Long March 6A

Launch pad: Launch Complex 9A

Location: Taiyuan Satellite Launch Center, People's Republic of China

...

Latest news about this satellite

There are no fresh news available about this satellite. Check back as we update our databases every day.


Newsletter sign-up

Weekly statistics, charts and insights to help you stay on top of the space industry.